Regional Weather Roundup
Issued by NWS

Home | Current Version | Previous Version | Graphics & Text | Print | Product List | Glossary Off
Versions: 1 2 3 4 5 6 7 8 9 10 11 12 13 14 15 16 17 18 19 20 21 22 23 24 25 26 27 28 29 30 31 32 33 34 35 36 37 38 39 40 41 42 43 44 45 46 47 48 49 50

000
ASUS43 KTOP 220259
RWRKS

WEATHER ROUNDUP FOR KANSAS
NATIONAL WEATHER SERVICE GOODLAND KS
1000 PM CDT SAT APR 21 2018

NOTE:  "FAIR" INDICATES FEW OR NO CLOUDS BELOW 12,000 FEET WITH NO
SIGNIFICANT WEATHER AND/OR OBSTRUCTIONS TO VISIBILITY.

KSZ001>006-013>018-027>032-041>047-220400-
NORTHWEST KANSAS

CITY           SKY/WX    TMP DP  RH WIND       PRES   REMARKS
GOODLAND       CLOUDY    40  39  97 CALM      30.23R
HAYS           CLOUDY    44  42  93 NE8       30.23R
HILL CITY      CLOUDY    43  42  97 N7        30.25R
RUSSELL        LGT RAIN  44  44 100 N8        30.22R FOG
$$

KSZ061>065-074>080-084>089-220400-
SOUTHWEST KANSAS

CITY           SKY/WX    TMP DP  RH WIND       PRES   REMARKS
DODGE CITY     CLOUDY    44  41  89 N12       30.20R FOG
GREAT BEND     LGT RAIN  44  43  96 NE9       30.23R
LIBERAL        CLOUDY    44  42  93 N9        30.23R
$$

KSZ066>073-081>083-090>101-220400-
SOUTHEAST KANSAS

CITY           SKY/WX    TMP DP  RH WIND       PRES   REMARKS
CHANUTE        LGT RAIN  47  45  93 N9        30.13R FOG
COFFEYVILLE    LGT RAIN  48  47  96 N7        30.10S FOG
HUTCHINSON     LGT RAIN  45  44  97 N10       30.19R
MEDICINE LODGE   N/A     45  43  93 N9        30.18R
NEWTON         LGT RAIN  43  42  97 N12       30.18R
PARSONS        LGT RAIN  48  47  96 N7        30.11R FOG
WICHITA INTL   LGT RAIN  46  46 100 N10       30.16R
WICHITA JABRA  LGT RAIN  44  44 100 N9        30.15R
WICHITA MCCONL LGT RAIN  44  44  99 N12       30.15R
WINFIELD       LGT RAIN  46  46 100 N8        30.15R
$$

KSZ007>012-019>026-033>040-048>060-102>105-220400-
NORTHEAST KANSAS

CITY           SKY/WX    TMP DP  RH WIND       PRES   REMARKS
CONCORDIA      LGT RAIN  44  42  93 NW5       30.23R
EMPORIA        LGT RAIN  44  42  93 N12       30.15R
LAWRENCE       CLOUDY    52  41  66 SE5       30.14R
MANHATTAN      LGT RAIN  47  43  86 VRB6      30.19R
OLATHE IND     CLOUDY    52  43  71 W5        30.15R
OLATHE EXE     CLOUDY    57  30  35 NE12      30.13R
SALINA         LGT RAIN  46  45  96 N12       30.22R FOG
TOPEKA BILLARD CLOUDY    50  44  80 NW3       30.15R
TOPEKA FORBES  CLOUDY    49  45  86 W3        30.15R
$$



USA.gov is the U.S. government's official web portal to all federal, state and local government web resources and services.